Live-Position
3D-Globus wird geladen...
Über Starlink 6064
Group: 3 satellites
Beschreibung wird geladen...
Nächste Überflüge
Passes for default location (London). Set your location on the main map for personalized predictions.
Höhenverlauf
Loading altitude history...
No altitude history available
Zweizeiliger Elementsatz
1 56805U 23078AQ 26104.39960608 .00001229 00000-0 11079-3 0 9993
2 56805 70.0000 234.3674 0003015 268.2713 91.8100 14.98319305158523
Epoch: 14. Apr. 2026 •
Age: 9 hours
Aktueller Status
Höhe 574.1 km
Geschwindigkeit 7.57 km/s
Subsatellitenpunkt 5.24°N,
67.06°W
Startdatum 31. Mai 2023
Alter 2.8 years
Typ internet
Startgruppe
Falcon 9 •
Group 2-10 •
46 satellites
Starlink 6197
56767
Starlink 6198 56768
Starlink 6342 56770
Starlink 6275 56772
Starlink 6296 56773
Starlink 6190 56774
Starlink 6292 56775
Starlink 6274 56776
Starlink 5582 56777
Starlink 6304 56778
Starlink 6231 56779
Starlink 5963 56780
Starlink 5989 56781
Starlink 6352 56782
Starlink 6357 56783
Starlink 6354 56784
Starlink 5931 56785
Starlink 6341 56786
Starlink 6326 56787
Starlink 6336 56788
...and 25 more
Technische Details
Klassifizierung Payload
Masse 305.00 kg
Trockenmasse 290.00 kg
Gesamtmasse 305.00 kg
Länge 0.20 m
Durchmesser 2.80 m
Spannweite 9.00 m
Form Box + pan
Hersteller SPXS
Bus-Typ Starlink
Phasenstatus In Orbit
Besitzer/Staat SPXS/US
Most Searched
Loading...